Time,TemperatureF,DewpointF,PressureIn,WindDirection,WindDirectionDegrees,WindSpeedMPH,WindSpeedGustMPH,Humidity,HourlyPrecipIn,Conditions,Clouds,dailyrainin,SoftwareType,DateUTC
2013-05-16 00:12:00,68.9,59.9,29.89,SE,135,2.7,-999.0,73,-99.99,,,0.00,Acu-Link.com,2013-05-16 04:12:00,
2013-05-16 00:27:00,68.7,60.1,29.89,SW,225,0.0,-999.0,74,-99.99,,,0.00,Acu-Link.com,2013-05-16 04:27:00,
2013-05-16 00:42:00,68.7,60.1,29.88,SSE,157,0.0,-999.0,74,-99.99,,,0.00,Acu-Link.com,2013-05-16 04:42:00,
2013-05-16 00:58:00,68.2,60.0,29.88,West,270,1.7,-999.0,75,-99.99,,,0.00,Acu-Link.com,2013-05-16 04:58:00,
2013-05-16 01:13:00,67.8,60.0,29.87,SSE,157,1.7,-999.0,76,-99.99,,,0.00,Acu-Link.com,2013-05-16 05:13:00,
2013-05-16 01:28:00,67.5,59.7,29.88,ESE,112,1.7,-999.0,76,-99.99,,,0.00,Acu-Link.com,2013-05-16 05:28:00,
2013-05-16 01:44:00,67.3,59.8,29.87,ESE,112,1.1,-999.0,77,-99.99,,,0.00,Acu-Link.com,2013-05-16 05:44:00,
2013-05-16 01:59:00,66.9,59.8,29.87,East,90,1.7,-999.0,78,-99.99,,,0.00,Acu-Link.com,2013-05-16 05:59:00,
2013-05-16 02:14:00,66.7,59.6,29.86,SE,135,0.0,-999.0,78,-99.99,,,0.00,Acu-Link.com,2013-05-16 06:14:00,
2013-05-16 02:30:00,66.9,60.2,29.86,SE,135,1.1,-999.0,79,-99.99,,,0.00,Acu-Link.com,2013-05-16 06:30:00,
2013-05-16 02:45:00,66.7,60.0,29.86,NE,45,0.0,-999.0,79,-99.99,,,0.00,Acu-Link.com,2013-05-16 06:45:00,
2013-05-16 03:00:00,66.4,59.7,29.86,ESE,112,2.7,-999.0,79,-99.99,,,0.00,Acu-Link.com,2013-05-16 07:00:00,
2013-05-16 03:15:00,66.2,59.5,29.86,East,90,1.7,-999.0,79,-99.99,,,0.00,Acu-Link.com,2013-05-16 07:15:00,
2013-05-16 03:30:00,66.2,59.5,29.86,ESE,112,0.0,-999.0,79,-99.99,,,0.00,Acu-Link.com,2013-05-16 07:30:00,
2013-05-16 03:45:00,66.2,59.1,29.85,SE,135,0.0,-999.0,78,-99.99,,,0.00,Acu-Link.com,2013-05-16 07:45:00,
2013-05-16 04:01:00,65.8,58.7,29.85,SSE,157,1.1,-999.0,78,-99.99,,,0.00,Acu-Link.com,2013-05-16 08:01:00,
2013-05-16 04:16:00,66.0,59.3,29.85,South,180,2.7,-999.0,79,-99.99,,,0.00,Acu-Link.com,2013-05-16 08:16:00,
2013-05-16 04:31:00,65.8,58.7,29.84,East,90,1.7,-999.0,78,-99.99,,,0.00,Acu-Link.com,2013-05-16 08:31:00,
2013-05-16 04:46:00,65.5,59.2,29.85,SSE,157,1.1,-999.0,80,-99.99,,,0.00,Acu-Link.com,2013-05-16 08:46:00,
2013-05-16 05:01:00,65.7,59.0,29.85,SSW,202,0.0,-999.0,79,-99.99,,,0.00,Acu-Link.com,2013-05-16 09:01:00,
2013-05-16 05:17:00,66.0,59.3,29.85,ESE,112,1.1,-999.0,79,-99.99,,,0.00,Acu-Link.com,2013-05-16 09:17:00,
2013-05-16 05:32:00,65.1,58.8,29.85,SSE,157,0.0,-999.0,80,-99.99,,,0.00,Acu-Link.com,2013-05-16 09:32:00,
2013-05-16 05:47:00,64.8,58.5,29.86,South,180,1.7,-999.0,80,-99.99,,,0.00,Acu-Link.com,2013-05-16 09:47:00,
2013-05-16 06:02:00,64.2,58.2,29.85,SSE,157,1.1,-999.0,81,-99.99,,,0.00,Acu-Link.com,2013-05-16 10:02:00,
2013-05-16 06:18:00,64.2,58.2,29.86,SSE,157,0.0,-999.0,81,-99.99,,,0.00,Acu-Link.com,2013-05-16 10:18:00,
2013-05-16 06:33:00,64.4,58.4,29.86,East,90,2.2,-999.0,81,-99.99,,,0.00,Acu-Link.com,2013-05-16 10:33:00,
2013-05-16 06:48:00,64.9,58.2,29.87,South,180,1.1,-999.0,79,-99.99,,,0.00,Acu-Link.com,2013-05-16 10:48:00,
2013-05-16 07:03:00,64.9,58.6,29.87,NE,45,1.7,-999.0,80,-99.99,,,0.00,Acu-Link.com,2013-05-16 11:03:00,
2013-05-16 07:18:00,64.9,58.6,29.88,WNW,292,0.0,-999.0,80,-99.99,,,0.00,Acu-Link.com,2013-05-16 11:18:00,
2013-05-16 07:34:00,65.8,59.1,29.89,East,90,0.0,-999.0,79,-99.99,,,0.00,Acu-Link.com,2013-05-16 11:34:00,
2013-05-16 07:49:00,67.8,60.3,29.91,NNE,22,1.1,-999.0,77,-99.99,,,0.00,Acu-Link.com,2013-05-16 11:49:00,
2013-05-16 08:04:00,69.6,60.9,29.90,ESE,112,2.2,-999.0,74,-99.99,,,0.00,Acu-Link.com,2013-05-16 12:04:00,
2013-05-16 08:19:00,71.2,61.3,29.90,NNE,22,1.7,-999.0,71,-99.99,,,0.00,Acu-Link.com,2013-05-16 12:19:00,
2013-05-16 08:35:00,73.9,62.7,29.91,East,90,2.7,-999.0,68,-99.99,,,0.00,Acu-Link.com,2013-05-16 12:35:00,
2013-05-16 08:50:00,79.0,64.8,29.92,WSW,247,1.7,-999.0,62,-99.99,,,0.00,Acu-Link.com,2013-05-16 12:50:00,
2013-05-16 09:05:00,82.2,64.4,29.92,ESE,112,1.7,-999.0,55,-99.99,,,0.00,Acu-Link.com,2013-05-16 13:05:00,
2013-05-16 09:21:00,83.1,64.2,29.93,WNW,292,2.7,-999.0,53,-99.99,,,0.00,Acu-Link.com,2013-05-16 13:21:00,
2013-05-16 09:36:00,83.7,63.1,29.93,East,90,2.2,-999.0,50,-99.99,,,0.00,Acu-Link.com,2013-05-16 13:36:00,
2013-05-16 09:51:00,78.8,61.8,29.94,West,270,2.7,-999.0,56,-99.99,,,0.00,Acu-Link.com,2013-05-16 13:51:00,
2013-05-16 10:06:00,80.1,60.9,29.93,North,0,3.7,-999.0,52,-99.99,,,0.00,Acu-Link.com,2013-05-16 14:06:00,
2013-05-16 10:22:00,81.7,60.7,29.94,NNE,22,4.7,-999.0,49,-99.99,,,0.00,Acu-Link.com,2013-05-16 14:22:00,
2013-05-16 10:37:00,81.1,60.1,29.94,WSW,247,3.7,-999.0,49,-99.99,,,0.00,Acu-Link.com,2013-05-16 14:37:00,
2013-05-16 10:52:00,82.6,60.3,29.94,NE,45,3.7,-999.0,47,-99.99,,,0.00,Acu-Link.com,2013-05-16 14:52:00,
2013-05-16 11:08:00,83.1,60.8,29.93,South,180,2.2,-999.0,47,-99.99,,,0.00,Acu-Link.com,2013-05-16 15:08:00,
2013-05-16 11:23:00,83.5,60.5,29.93,West,270,2.2,-999.0,46,-99.99,,,0.00,Acu-Link.com,2013-05-16 15:23:00,
2013-05-16 11:38:00,85.3,62.8,29.93,WSW,247,3.7,-999.0,47,-99.99,,,0.00,Acu-Link.com,2013-05-16 15:38:00,
2013-05-16 11:54:00,85.5,60.4,29.93,ENE,67,3.2,-999.0,43,-99.99,,,0.00,Acu-Link.com,2013-05-16 15:54:00,
2013-05-16 12:09:00,84.9,59.9,29.93,West,270,2.2,-999.0,43,-99.99,,,0.00,Acu-Link.com,2013-05-16 16:09:00,
2013-05-16 12:24:00,85.6,59.2,29.92,SSE,157,2.7,-999.0,41,-99.99,,,0.00,Acu-Link.com,2013-05-16 16:24:00,
2013-05-16 12:39:00,85.1,60.1,29.90,NW,315,2.2,-999.0,43,-99.99,,,0.00,Acu-Link.com,2013-05-16 16:39:00,
2013-05-16 12:54:00,86.7,60.1,29.89,WSW,247,5.3,-999.0,41,-99.99,,,0.00,Acu-Link.com,2013-05-16 16:54:00,
2013-05-16 13:09:00,88.7,60.5,29.88,NW,315,2.7,-999.0,39,-99.99,,,0.00,Acu-Link.com,2013-05-16 17:09:00,
2013-05-16 13:24:00,88.2,60.8,29.88,West,270,2.2,-999.0,40,-99.99,,,0.00,Acu-Link.com,2013-05-16 17:24:00,
2013-05-16 13:40:00,90.1,61.0,29.87,NE,45,2.2,-999.0,38,-99.99,,,0.00,Acu-Link.com,2013-05-16 17:40:00,
2013-05-16 13:55:00,88.5,59.6,29.87,SSW,202,2.2,-999.0,38,-99.99,,,0.00,Acu-Link.com,2013-05-16 17:55:00,
2013-05-16 14:10:00,88.3,57.9,29.86,East,90,3.7,-999.0,36,-99.99,,,0.00,Acu-Link.com,2013-05-16 18:10:00,
2013-05-16 14:26:00,90.1,58.7,29.85,North,0,2.2,-999.0,35,-99.99,,,0.00,Acu-Link.com,2013-05-16 18:26:00,
2013-05-16 14:41:00,88.9,57.7,29.83,East,90,2.7,-999.0,35,-99.99,,,0.00,Acu-Link.com,2013-05-16 18:41:00,
2013-05-16 14:56:00,88.2,57.8,29.82,NNW,337,1.7,-999.0,36,-99.99,,,0.00,Acu-Link.com,2013-05-16 18:56:00,
2013-05-16 15:12:00,87.3,56.3,29.81,East,90,3.7,-999.0,35,-99.99,,,0.00,Acu-Link.com,2013-05-16 19:12:00,
2013-05-16 15:27:00,89.1,57.0,29.80,SE,135,6.8,-999.0,34,-99.99,,,0.00,Acu-Link.com,2013-05-16 19:27:00,
2013-05-16 15:42:00,88.5,55.7,29.79,ESE,112,3.2,-999.0,33,-99.99,,,0.00,Acu-Link.com,2013-05-16 19:42:00,
2013-05-16 15:57:00,88.5,54.8,29.80,SE,135,4.7,-999.0,32,-99.99,,,0.00,Acu-Link.com,2013-05-16 19:57:00,
2013-05-16 16:12:00,88.3,57.9,29.78,ESE,112,2.7,-999.0,36,-99.99,,,0.00,Acu-Link.com,2013-05-16 20:12:00,
2013-05-16 16:27:00,89.6,58.3,29.78,ENE,67,1.7,-999.0,35,-99.99,,,0.00,Acu-Link.com,2013-05-16 20:27:00,
2013-05-16 16:43:00,87.8,56.7,29.77,SSE,157,3.2,-999.0,35,-99.99,,,0.00,Acu-Link.com,2013-05-16 20:43:00,
2013-05-16 16:58:00,86.5,57.8,29.77,ESE,112,2.2,-999.0,38,-99.99,,,0.00,Acu-Link.com,2013-05-16 20:58:00,
2013-05-16 17:13:00,86.7,57.3,29.77,SW,225,2.2,-999.0,37,-99.99,,,0.00,Acu-Link.com,2013-05-16 21:13:00,
2013-05-16 17:29:00,86.7,59.5,29.76,SSE,157,3.2,-999.0,40,-99.99,,,0.00,Acu-Link.com,2013-05-16 21:29:00,
2013-05-16 17:44:00,88.5,58.1,29.76,ESE,112,3.2,-999.0,36,-99.99,,,0.00,Acu-Link.com,2013-05-16 21:44:00,
2013-05-16 17:59:00,86.2,59.0,29.76,SE,135,2.7,-999.0,40,-99.99,,,0.00,Acu-Link.com,2013-05-16 21:59:00,
2013-05-16 18:14:00,84.7,59.0,29.75,SSW,202,5.3,-999.0,42,-99.99,,,0.00,Acu-Link.com,2013-05-16 22:14:00,
2013-05-16 18:30:00,84.2,57.9,29.75,East,90,3.7,-999.0,41,-99.99,,,0.00,Acu-Link.com,2013-05-16 22:30:00,
2013-05-16 18:45:00,84.0,57.7,29.76,South,180,2.2,-999.0,41,-99.99,,,0.00,Acu-Link.com,2013-05-16 22:45:00,
2013-05-16 19:00:00,83.3,57.1,29.76,South,180,1.1,-999.0,41,-99.99,,,0.00,Acu-Link.com,2013-05-16 23:00:00,
2013-05-16 19:15:00,82.6,57.8,29.76,WSW,247,4.7,-999.0,43,-99.99,,,0.00,Acu-Link.com,2013-05-16 23:15:00,
2013-05-16 19:30:00,81.9,58.4,29.76,South,180,4.2,-999.0,45,-99.99,,,0.00,Acu-Link.com,2013-05-16 23:30:00,
2013-05-16 19:46:00,81.1,58.3,29.76,SSE,157,2.2,-999.0,46,-99.99,,,0.00,Acu-Link.com,2013-05-16 23:46:00,
2013-05-16 20:01:00,79.5,63.4,29.77,SSE,157,6.8,-999.0,58,-99.99,,,0.00,Acu-Link.com,2013-05-17 00:01:00,
2013-05-16 20:17:00,79.0,63.4,29.78,SSE,157,3.2,-999.0,59,-99.99,,,0.00,Acu-Link.com,2013-05-17 00:17:00,
2013-05-16 20:32:00,77.9,63.3,29.79,NE,45,3.2,-999.0,61,-99.99,,,0.00,Acu-Link.com,2013-05-17 00:32:00,
2013-05-16 20:47:00,77.2,62.7,29.79,East,90,3.2,-999.0,61,-99.99,,,0.00,Acu-Link.com,2013-05-17 00:47:00,
2013-05-16 21:03:00,76.3,62.3,29.80,ESE,112,4.7,-999.0,62,-99.99,,,0.00,Acu-Link.com,2013-05-17 01:03:00,
2013-05-16 21:18:00,75.4,61.9,29.81,ESE,112,2.2,-999.0,63,-99.99,,,0.00,Acu-Link.com,2013-05-17 01:18:00,
2013-05-16 21:33:00,74.7,61.7,29.81,SE,135,2.2,-999.0,64,-99.99,,,0.00,Acu-Link.com,2013-05-17 01:33:00,
2013-05-16 21:49:00,74.3,60.9,29.82,NW,315,2.2,-999.0,63,-99.99,,,0.00,Acu-Link.com,2013-05-17 01:49:00,
2013-05-16 22:04:00,73.9,60.9,29.82,WSW,247,3.7,-999.0,64,-99.99,,,0.00,Acu-Link.com,2013-05-17 02:04:00,
2013-05-16 22:19:00,73.2,60.7,29.82,East,90,4.7,-999.0,65,-99.99,,,0.00,Acu-Link.com,2013-05-17 02:19:00,
2013-05-16 22:35:00,73.0,61.0,29.83,ENE,67,2.7,-999.0,66,-99.99,,,0.00,Acu-Link.com,2013-05-17 02:35:00,
2013-05-16 22:50:00,72.7,61.1,29.84,ENE,67,2.7,-999.0,67,-99.99,,,0.00,Acu-Link.com,2013-05-17 02:50:00,
2013-05-16 23:05:00,72.1,60.9,29.85,NNE,22,2.7,-999.0,68,-99.99,,,0.00,Acu-Link.com,2013-05-17 03:05:00,
2013-05-16 23:21:00,71.6,60.9,29.85,SE,135,2.2,-999.0,69,-99.99,,,0.00,Acu-Link.com,2013-05-17 03:21:00,
2013-05-16 23:36:00,71.1,60.8,29.85,ESE,112,2.7,-999.0,70,-99.99,,,0.00,Acu-Link.com,2013-05-17 03:36:00,
2013-05-16 23:51:00,70.7,60.8,29.85,East,90,2.7,-999.0,71,-99.99,,,0.00,Acu-Link.com,2013-05-17 03:51:00,